�������l�o���
Date,Time,MP-1(��Sv/h),MP-2(��Sv/h),MP-3(��Sv/h),MP-4(��Sv/h),MP-5(��Sv/h),MP-6(��Sv/h),MP-7(��Sv/h),����,����(m/s),���J
2013/07/11,00:00,0.9,0.6,0.9,0.9,0.8,0.4,0.3,-,CALM,��
2013/07/11,00:10,0.9,0.6,0.9,0.9,0.8,0.4,0.3,-,CALM,��
2013/07/11,00:20,0.9,0.6,0.9,0.9,0.8,0.4,0.3,���k��,0.5,��
2013/07/11,00:30,0.9,0.6,0.9,0.9,0.8,0.4,0.3,-,CALM,��
2013/07/11,00:40,0.9,0.6,0.9,0.9,0.8,0.4,0.3,��,0.7,��
2013/07/11,00:50,0.9,0.6,0.9,0.9,0.8,0.4,0.3,���k��,0.7,��
2013/07/11,01:00,0.9,0.6,0.9,0.9,0.8,0.4,0.3,���k��,1.3,��
2013/07/11,01:10,0.9,0.6,0.9,0.9,0.8,0.4,0.3,���k��,1.3,��
2013/07/11,01:20,0.9,0.6,0.9,0.9,0.8,0.4,0.3,�k,0.7,��
2013/07/11,01:30,0.9,0.6,0.9,0.9,0.8,0.4,0.3,�k��,0.8,��
2013/07/11,01:40,0.9,0.6,0.9,0.9,0.8,0.4,0.3,-,CALM,��
2013/07/11,01:50,0.9,0.6,0.9,0.9,0.8,0.4,0.3,��,0.7,��
2013/07/11,02:00,0.9,0.6,0.9,0.9,0.8,0.4,0.3,���쓌,0.5,��
2013/07/11,02:10,0.9,0.6,0.9,0.9,0.8,0.4,0.3,��쐼,4.0,�L
2013/07/11,02:20,0.9,0.6,0.9,0.9,0.8,0.4,0.3,��쐼,6.5,�L
2013/07/11,02:30,0.9,0.6,0.9,0.9,0.8,0.4,0.3,��쐼,5.1,�L
2013/07/11,02:40,0.9,0.6,0.9,0.9,0.8,0.4,0.3,��쐼,3.9,��
2013/07/11,02:50,0.9,0.6,0.9,0.9,0.8,0.4,0.3,��쐼,2.1,��
2013/07/11,03:00,0.9,0.6,0.9,0.9,0.8,0.4,0.3,�쐼,2.3,��
2013/07/11,03:10,0.9,0.6,0.9,0.9,0.8,0.4,0.3,���쐼,1.3,��
2013/07/11,03:20,0.9,0.6,0.9,0.9,0.8,0.4,0.3,-,CALM,��
2013/07/11,03:30,0.9,0.6,0.9,0.9,0.8,0.4,0.3,��,0.5,��
2013/07/11,03:40,0.9,0.6,0.9,0.9,0.8,0.4,0.3,��쐼,1.0,��
2013/07/11,03:50,0.9,0.6,0.9,0.9,0.8,0.4,0.3,��쐼,1.3,��
2013/07/11,04:00,0.9,0.6,0.9,0.9,0.8,0.4,0.3,�쐼,2.5,��
2013/07/11,04:10,0.9,0.6,0.9,0.9,0.8,0.4,0.3,�쐼,4.2,��
2013/07/11,04:20,0.9,0.6,0.9,0.9,0.8,0.4,0.3,���쐼,3.5,��
2013/07/11,04:30,0.9,0.6,0.9,0.9,0.8,0.4,0.3,���쐼,3.1,��
2013/07/11,04:40,0.9,0.6,0.9,0.9,0.8,0.4,0.3,���쐼,3.6,��
2013/07/11,04:50,0.9,0.6,0.9,0.9,0.8,0.4,0.3,��,3.1,��
2013/07/11,05:00,0.9,0.6,0.9,0.9,0.8,0.4,0.3,���쐼,3.0,��
2013/07/11,05:10,0.9,0.6,0.9,0.9,0.8,0.4,0.3,�쐼,3.1,��
2013/07/11,05:20,0.9,0.6,0.9,0.9,0.8,0.4,0.3,��쐼,2.6,��
2013/07/11,05:30,0.9,0.6,0.9,0.9,0.8,0.4,0.3,��,2.5,��
2013/07/11,05:40,0.9,0.6,0.9,0.9,0.8,0.4,0.3,��쓌,3.3,��
2013/07/11,05:50,0.9,0.6,0.9,0.9,0.8,0.4,0.3,��쓌,3.8,��
2013/07/11,06:00,0.9,0.6,0.9,0.9,0.8,0.4,0.3,��쓌,3.9,��
2013/07/11,06:10,0.9,0.6,0.9,0.9,0.8,0.4,0.3,��쓌,4.6,��
2013/07/11,06:20,0.9,0.6,0.9,0.9,0.8,0.4,0.3,��,5.1,��
2013/07/11,06:30,0.9,0.6,0.9,0.9,0.8,0.4,0.3,��,5.7,��
2013/07/11,06:40,0.9,0.6,0.9,0.9,0.8,0.4,0.3,��,5.3,��
2013/07/11,06:50,0.9,0.6,0.9,0.9,0.8,0.4,0.3,��,4.7,��
2013/07/11,07:00,0.9,0.6,0.9,0.9,0.8,0.4,0.3,��,5.3,��
2013/07/11,07:10,0.9,0.6,0.9,0.9,0.8,0.4,0.3,��,4.4,��
2013/07/11,07:20,0.9,0.6,0.9,0.9,0.8,0.4,0.3,��,4.4,��
2013/07/11,07:30,0.9,0.6,0.9,0.9,0.8,0.4,0.3,��,3.9,��
2013/07/11,07:40,0.9,0.6,0.9,0.9,0.8,0.4,0.3,��,4.3,��
2013/07/11,07:50,0.9,0.6,0.9,0.9,0.8,0.4,0.3,��,5.4,��
2013/07/11,08:00,0.9,0.6,0.9,0.9,0.8,0.4,0.3,��,5.3,��
2013/07/11,08:10,0.9,0.6,0.9,0.9,0.8,0.4,0.3,��,5.1,��
2013/07/11,08:20,0.9,0.6,0.9,0.9,0.8,0.4,0.3,��,6.1,��
2013/07/11,08:30,0.9,0.6,0.9,0.9,0.8,0.4,0.3,��,5.6,��
2013/07/11,08:40,0.9,0.6,0.9,0.9,0.8,0.4,0.3,��,4.5,��
2013/07/11,08:50,0.9,0.6,0.9,0.9,0.8,0.4,0.3,��,4.8,��
2013/07/11,09:00,0.9,0.6,0.9,0.9,0.8,0.4,0.3,��,3.5,��
2013/07/11,09:10,0.9,0.6,0.9,0.9,0.8,0.4,0.3,��,4.8,��
2013/07/11,09:20,0.9,0.6,0.9,0.9,0.8,0.4,0.3,��,4.7,��
2013/07/11,09:30,0.9,0.6,0.9,0.9,0.8,0.4,0.3,��,3.9,��
2013/07/11,09:40,0.9,0.6,0.9,0.9,0.8,0.4,0.3,��,5.6,��
2013/07/11,09:50,0.9,0.6,0.9,0.9,0.8,0.4,0.3,��,5.7,��
2013/07/11,10:00,0.9,0.6,0.9,0.9,0.8,0.4,0.3,��,5.3,��
2013/07/11,10:10,0.9,0.6,0.9,0.9,0.8,0.4,0.3,��,5.3,��
2013/07/11,10:20,0.9,0.7,0.9,0.9,0.8,0.4,0.3,��쓌,4.9,��
2013/07/11,10:30,0.9,0.6,0.9,0.9,0.8,0.4,0.3,��쓌,5.2,��
2013/07/11,10:40,0.9,0.6,0.9,0.9,0.8,0.4,0.3,��쓌,4.8,��
2013/07/11,10:50,0.9,0.6,0.9,0.9,0.8,0.4,0.3,��쓌,4.8,��
2013/07/11,11:00,0.9,0.7,0.9,0.9,0.8,0.4,0.3,��쓌,5.0,��
2013/07/11,11:10,0.9,0.7,0.9,0.9,0.8,0.4,0.3,��쓌,5.6,��
2013/07/11,11:20,0.9,0.7,0.9,0.9,0.8,0.4,0.3,��쓌,5.9,��
2013/07/11,11:30,0.9,0.6,0.9,0.9,0.8,0.4,0.3,��,6.2,��
2013/07/11,11:40,0.9,0.7,0.9,0.9,0.8,0.4,0.3,��쓌,5.5,��
2013/07/11,11:50,0.9,0.6,0.9,0.9,0.8,0.4,0.3,��,5.7,��
2013/07/11,12:00,0.9,0.7,0.9,0.9,0.8,0.4,0.3,��,5.5,��
2013/07/11,12:10,0.9,0.7,0.9,0.9,0.8,0.4,0.3,��,5.7,��
2013/07/11,12:20,0.9,0.7,0.9,0.9,0.8,0.4,0.3,��쐼,5.3,��
2013/07/11,12:30,0.9,0.6,0.9,0.9,0.8,0.4,0.3,��,5.3,��
2013/07/11,12:40,0.9,0.6,0.9,0.9,0.8,0.4,0.3,��,6.0,��
2013/07/11,12:50,0.9,0.6,0.9,0.9,0.8,0.4,0.3,��,7.0,��
2013/07/11,13:00,0.9,0.7,0.9,0.9,0.8,0.4,0.3,��,7.7,��
2013/07/11,13:10,0.9,0.7,0.9,0.9,0.8,0.4,0.3,��,6.9,��
2013/07/11,13:20,0.9,0.6,0.9,0.9,0.8,0.4,0.3,��쐼,6.7,��
2013/07/11,13:30,0.9,0.7,0.9,0.9,0.8,0.4,0.3,��,6.8,��
2013/07/11,13:40,0.9,0.7,0.9,0.9,0.8,0.4,0.3,��,7.4,��
2013/07/11,13:50,0.9,0.6,0.9,0.9,0.8,0.4,0.3,��,6.8,��
2013/07/11,14:00,0.9,0.6,0.9,0.9,0.8,0.4,0.3,��,6.7,��
2013/07/11,14:10,0.9,0.6,0.9,0.9,0.8,0.4,0.3,��,6.9,��
2013/07/11,14:20,0.9,0.6,0.9,0.9,0.8,0.4,0.3,��쐼,6.4,��
2013/07/11,14:30,0.9,0.6,0.9,0.9,0.8,0.4,0.3,��,6.2,��
2013/07/11,14:40,0.9,0.7,0.9,0.9,0.8,0.4,0.3,��,5.9,��
2013/07/11,14:50,0.9,0.7,0.9,0.9,0.8,0.4,0.3,��쐼,4.1,��
2013/07/11,15:00,0.9,0.7,0.9,0.9,0.8,0.4,0.3,��쐼,2.7,��
2013/07/11,15:10,0.9,0.7,0.9,0.9,0.8,0.4,0.3,��쐼,3.0,��
2013/07/11,15:20,0.9,0.6,0.9,0.9,0.8,0.4,0.3,��쐼,3.6,��
2013/07/11,15:30,0.9,0.7,0.9,0.9,0.8,0.4,0.3,��쐼,4.3,��
2013/07/11,15:40,0.9,0.6,0.9,0.9,0.8,0.4,0.3,��쐼,5.2,��
2013/07/11,15:50,0.9,0.6,0.9,0.9,0.8,0.4,0.3,��쐼,4.7,��
2013/07/11,16:00,0.9,0.6,0.9,0.9,0.8,0.4,0.3,��쐼,5.5,��
2013/07/11,16:10,0.9,0.6,0.9,0.9,0.8,0.4,0.3,��,5.7,��
2013/07/11,16:20,0.9,0.6,0.9,0.9,0.8,0.4,0.3,��쐼,4.6,��
2013/07/11,16:30,0.9,0.6,0.9,0.9,0.8,0.4,0.3,��쐼,4.4,��
2013/07/11,16:40,0.9,0.6,0.9,0.9,0.8,0.4,0.3,��쐼,4.8,��
2013/07/11,16:50,0.9,0.6,0.9,0.9,0.8,0.4,0.3,��쐼,4.8,��
2013/07/11,17:00,0.9,0.6,0.9,0.9,0.8,0.4,0.3,��쐼,4.7,��
2013/07/11,17:10,0.9,0.6,0.9,0.9,0.8,0.4,0.3,��,5.0,��
2013/07/11,17:20,0.9,0.6,0.9,0.9,0.8,0.4,0.3,��쐼,5.5,��
2013/07/11,17:30,0.9,0.6,0.9,0.9,0.8,0.4,0.3,��쐼,5.2,��
2013/07/11,17:40,0.9,0.6,0.9,0.9,0.8,0.4,0.3,��쐼,5.4,��
2013/07/11,17:50,0.9,0.6,0.9,0.9,0.8,0.4,0.3,��쐼,4.5,��
2013/07/11,18:00,0.9,0.6,0.9,0.9,0.8,0.4,0.3,��,4.2,��
2013/07/11,18:10,0.9,0.6,0.9,0.9,0.8,0.4,0.3,��쐼,4.8,��
2013/07/11,18:20,0.9,0.6,0.9,0.9,0.8,0.4,0.3,��쐼,5.2,��
2013/07/11,18:30,0.9,0.6,0.9,0.9,0.8,0.4,0.3,��쐼,3.9,��
2013/07/11,18:40,0.9,0.6,0.9,0.9,0.8,0.4,0.3,��,3.3,��
2013/07/11,18:50,0.9,0.6,0.9,0.9,0.8,0.4,0.3,��쐼,3.0,��
2013/07/11,19:00,0.9,0.6,0.9,0.9,0.8,0.4,0.3,��쐼,2.1,��
2013/07/11,19:10,0.9,0.6,0.9,0.9,0.8,0.4,0.3,��쐼,1.6,��
2013/07/11,19:20,0.9,0.6,0.9,0.9,0.8,0.4,0.3,��,2.8,��
2013/07/11,19:30,0.9,0.6,0.9,0.9,0.8,0.4,0.3,��쓌,1.4,��
2013/07/11,19:40,0.9,0.6,0.9,0.9,0.8,0.4,0.3,��쓌,1.0,��
2013/07/11,19:50,0.9,0.6,0.9,0.9,0.8,0.4,0.3,��,1.7,��
2013/07/11,20:00,0.9,0.6,0.9,0.9,0.8,0.4,0.3,�쓌,1.0,��
2013/07/11,20:10,0.9,0.6,0.9,0.9,0.8,0.4,0.3,���쓌,0.7,��
2013/07/11,20:20,0.9,0.6,0.9,0.9,0.8,0.4,0.3,-,CALM,��
2013/07/11,20:30,0.9,0.6,0.9,0.9,0.8,0.4,0.3,-,CALM,��
2013/07/11,20:40,0.9,0.6,0.9,0.9,0.8,0.4,0.3,�k�k��,1.4,��
2013/07/11,20:50,0.9,0.6,0.9,0.9,0.8,0.4,0.3,�k�k��,2.1,��
2013/07/11,21:00,0.9,0.6,0.9,0.9,0.8,0.4,0.3,�k,1.4,��
2013/07/11,21:10,0.9,0.6,0.9,0.9,0.8,0.4,0.3,�k��,2.3,��
2013/07/11,21:20,0.9,0.6,0.9,0.9,0.8,0.4,0.3,�k��,4.8,��
2013/07/11,21:30,0.9,0.6,0.9,0.9,0.8,0.4,0.3,�k��,5.4,��
2013/07/11,21:40,0.9,0.6,0.9,0.9,0.8,0.4,0.3,�k��,4.4,��
2013/07/11,21:50,0.9,0.6,0.9,0.9,0.8,0.4,0.3,�k��,4.8,��
2013/07/11,22:00,0.9,0.6,0.9,0.9,0.8,0.4,0.3,�k��,5.2,��
2013/07/11,22:10,0.9,0.6,0.9,0.9,0.8,0.4,0.3,�k�k��,5.6,��
2013/07/11,22:20,0.9,0.6,0.9,0.9,0.8,0.4,0.3,�k��,5.1,��
2013/07/11,22:30,0.9,0.6,0.9,0.9,0.8,0.4,0.3,�k��,4.8,��
2013/07/11,22:40,0.9,0.6,0.9,0.9,0.8,0.4,0.3,�k��,5.5,��
2013/07/11,22:50,0.9,0.6,0.9,0.9,0.8,0.4,0.3,�k��,4.7,��
2013/07/11,23:00,0.9,0.6,0.9,0.9,0.8,0.4,0.3,�k��,3.7,��
2013/07/11,23:10,0.9,0.6,0.9,0.9,0.8,0.4,0.3,-,CALM,��
2013/07/11,23:20,0.9,0.6,0.9,0.9,0.8,0.4,0.3,�k,0.8,��
2013/07/11,23:30,0.9,0.6,0.9,0.9,0.8,0.4,0.3,�k�k��,1.1,��
2013/07/11,23:40,0.9,0.6,0.9,0.9,0.8,0.4,0.3,�k��,1.6,��
2013/07/11,23:50,0.9,0.6,0.9,0.9,0.8,0.4,0.3,�k��,2.1,��
